CZ-2D DEB, 43403

Orbit data source: Space-Track

CZ-2D DEB, 43403 is space debris in SSO originally from a launch on Sat, 29 Sep 2012 UTC launched from the Jiuquan Satellite Launch Center, China (JSC). Debris objects in space refer to the collection of defunct objects orbiting the Earth. Examples of debris include non-operational satellites, rocket bodies, and fragments generated from explosions, collisions, or faulty payload assembly.

Loading next visibility...
Identifier
43403, 2012-052C
Orbit
SSO
Country
Flag of CNCN / PRC
Related business
Manufacturer
SAST
Mission
Spacecraft
Bus & Motor
Unknown
Mass
Unknown
Launch date (UTC)
2012-09-29 (14 years ago)
Launch vehicle
Unknown
Launch site
Jiuquan Satellite Launch Center, China (JSC)
Object type
Payload
Rocket body
Debris
Shape & HBR
Unknown shape, 0.1 m
Radar Cross Section
Small (<0.1 m²)

Expand to show TLE details & history
Last TLE update: 6 days ago

TLE from 6 days ago
0 CZ-2D DEB
1 43403U 12052C   26167.52423571  .00001078  00000-0  27514-3 0  9993
2 43403  98.0222 258.5952 0187791 299.6248  58.6351 14.42535561656201
Epoch: 2026-06-16T12:34Z
TLE epoch observation values (Epoch: 2026-06-16T12:34:53.965Z)
Latitude
-0.00008°
Longitude
165.07532°
Altitude
685.274 km
Speed
7.549 km/s
True Right ascension
17h 14m 22s
True Declination
0° 00' 00"
Sunlit
Object was in full shadow at epoch
Visualization orbit readout
Latitude
Unknown
Longitude
Unknown
Altitude
Unknown
Speed
Unknown
Apparent Right ascension
Unknown
Apparent Declination
Unknown
Sunlit
N/A
Visualization observer readout
Local Sidereal Time
21:36:19
Azimuth
Unknown
Elevation
Unknown
Doppler factor
Unknown
Orbital elements
Apogee altitude
881.036 km
Perigee altitude
613.42 km
Semi-major axis
7,125.365 km
Eccentricity
0.01878
Inclination
98.0222°
RAAN
258.5952°
Arg. of periapsis
299.6248°
True anomaly
60.49495°
Mean anomaly
58.6351°
Eccentric anomaly
59.56278°
Mean motion
3.60855 °/min
Orbital period
99.76 mins
BSTAR
0.00027514
Loading maneuver chart data...
Computing Atmospheric mass density...
Loading historical data...
Loading historical data...
Loading historical data...
Loading historical data...
Loading historical data...
Loading historical data...
Loading historical data...
Other satellites on launch #52 in the year 2012 (2012-09-29 UTC)

Documentation

Showing up to 5 results
|